Weather History for KGLD - February, 2014

Change the Weather History Date:

Saturday, February 1, 2014

  Actual Average Record
Temperature  
Mean Temperature 11 °F 30 °F  
Max Temperature 20 °F 43 °F 78 °F (2003)
Min Temperature 2 °F 17 °F -21 °F (1951)
Degree Days  
Heating Degree Days 54 35  
Month to date heating degree days 54 35  
Since 1 July heating degree days 3497 3538  
Cooling Degree Days 0 0  
Month to date cooling degree days 0 0  
Year to date cooling degree days 0 0  
Moisture  
Dew Point 8 °F    
Average Humidity 85    
Maximum Humidity 96    
Minimum Humidity 73    
Precipitation  
Precipitation 0.00 in 0.02 in 0.42 in (1982)
Month to date precipitation 0.00 0.02  
Year to date precipitation 0.57 0.40  
Snow  
Snow 0.00 in 0.20 in - ()
Month to date snowfall 0.0 0.2  
Since 1 July snowfall 16.4 18.8  
Snow Depth 0.00 in    
Sea Level Pressure  
Sea Level Pressure 30.11 in    
Wind  
Wind Speed 10 mph (NNW)    
Max Wind Speed 20 mph    
Max Gust Speed 24 mph    
Visibility 10 miles    
Events      
T = Trace of Precipitation, MM = Missing Value Source: NWS Daily Summary

Daily Weather History Graph

Daily Weather History Graph

Search for Another Location

Airport or City:

Trip Planner

Search our weather history database for the weather conditions in past years. The results will help you decide how hot, cold, wet, or windy it might be!

Date:

Astronomy

Feb. 01, 2014 Rise Set
Actual Time 6:53 AM MST 5:07 PM MST
Civil Twilight 6:25 AM MST 5:35 PM MST
Nautical Twilight 5:53 AM MST 6:07 PM MST
Astronomical Twilight 5:21 AM MST 6:39 PM MST
Moon 7:45 AM MST (2/1) 7:43 PM MST (2/1)
Length of Visible Light 11h 10m
Length of Day
10h 13m
Waxing Crescent, 5% of the Moon is Illuminated
Feb 1
Waxing Crescent
Feb 6
First Quarter
Feb 14
Full
Feb 22
Last Quarter
Mar 1
New

Hourly Weather History & Observations

Time (MST) Temp. Windchill Dew Point Humidity Pressure Visibility Wind Dir Wind Speed Gust Speed Precip Events Conditions
12:53 AM 19.9 °F 10.1 °F 17.1 °F 89% 29.89 in 10.0 mi SW 8.1 mph - N/A   Clear
1:53 AM 19.0 °F 10.0 °F 17.1 °F 92% 29.91 in 10.0 mi WSW 6.9 mph - N/A   Scattered Clouds
2:53 AM 16.0 °F 6.3 °F 14.0 °F 92% 29.91 in 10.0 mi West 6.9 mph - N/A   Clear
3:53 AM 14.0 °F 2.0 °F 12.0 °F 92% 29.92 in 10.0 mi West 9.2 mph - N/A   Clear
4:53 AM 10.9 °F 0.2 °F 9.0 °F 92% 29.96 in 10.0 mi NW 6.9 mph - N/A   Clear
5:53 AM 10.0 °F -1.9 °F 7.0 °F 87% 29.98 in 9.0 mi NW 8.1 mph - N/A   Clear
6:46 AM 8.1 °F -6.2 °F 6.1 °F 92% 29.87 in 9.0 mi NNW 10.4 mph - N/A   Scattered Clouds
6:53 AM 8.1 °F -6.2 °F 6.1 °F 92% 30.02 in 9.0 mi NNW 10.4 mph - N/A   Mostly Cloudy
7:53 AM 9.0 °F -6.6 °F 7.0 °F 92% 30.06 in 7.0 mi North 12.7 mph - N/A   Mostly Cloudy
8:23 AM 10.9 °F -4.7 °F 8.1 °F 88% 29.93 in 7.0 mi North 13.8 mph - N/A   Mostly Cloudy
8:38 AM 12.9 °F -1.6 °F 10.0 °F 88% 29.93 in 7.0 mi North 12.7 mph - N/A   Mostly Cloudy
8:53 AM 14.0 °F -0.2 °F 10.9 °F 88% 30.07 in 9.0 mi North 12.7 mph - N/A   Overcast
9:31 AM 15.1 °F 1.1 °F 10.0 °F 80% 29.96 in 10.0 mi North 12.7 mph - N/A   Overcast
9:38 AM 15.1 °F -0.1 °F 10.0 °F 80% 29.96 in 10.0 mi North 15.0 mph - N/A   Overcast
9:53 AM 15.1 °F -1.1 °F 9.0 °F 77% 30.10 in 10.0 mi North 17.3 mph - N/A   Overcast
10:53 AM 14.0 °F -2.0 °F 8.1 °F 77% 30.15 in 10.0 mi North 16.1 mph - N/A   Overcast
11:53 AM 15.1 °F -1.6 °F 8.1 °F 74% 30.12 in 10.0 mi North 18.4 mph - N/A   Overcast
12:53 PM 15.1 °F -1.1 °F 8.1 °F 74% 30.13 in 10.0 mi North 17.3 mph - N/A   Overcast
1:07 PM 15.1 °F -0.1 °F 7.0 °F 70% 30.01 in 10.0 mi North 15.0 mph - N/A   Overcast
1:53 PM 15.1 °F 1.1 °F 8.1 °F 74% 30.15 in 10.0 mi North 12.7 mph - N/A   Overcast
2:53 PM 15.1 °F 0.5 °F 8.1 °F 74% 30.19 in 10.0 mi North 13.8 mph - N/A   Overcast
3:53 PM 15.1 °F 0.5 °F 8.1 °F 74% 30.22 in 10.0 mi North 13.8 mph - N/A   Overcast
4:53 PM 12.9 °F 0.7 °F 7.0 °F 77% 30.25 in 10.0 mi North 9.2 mph - N/A   Overcast
5:53 PM 10.9 °F 0.2 °F 6.1 °F 81% 30.30 in 10.0 mi NW 6.9 mph - N/A   Mostly Cloudy
6:53 PM 9.0 °F -2.2 °F 6.1 °F 88% 30.33 in 10.0 mi NNW 6.9 mph - N/A   Overcast
7:53 PM 8.1 °F -3.2 °F 5.0 °F 87% 30.35 in 10.0 mi NW 6.9 mph - N/A   Overcast
8:53 PM 7.0 °F -5.7 °F 3.9 °F 87% 30.35 in 10.0 mi NW 8.1 mph - N/A   Overcast
9:53 PM 5.0 °F -6.9 °F 1.9 °F 87% 30.36 in 10.0 mi NW 6.9 mph - N/A   Overcast
10:53 PM 5.0 °F -5.6 °F 1.9 °F 87% 30.35 in 10.0 mi WNW 5.8 mph - N/A   Overcast
11:53 PM 1.9 °F -10.6 °F -2.0 °F 83% 30.35 in 10.0 mi West 6.9 mph - N/A   Scattered Clouds